| time (UTC) | temp F | wind direction | speed MPH | gust MPH | rain 1hr in | rain 24hr in | rain mn in | humidity % | barometer mb |
| 20260509173508 | 64 | 41 | 2.0 | 5.0 | 0.00 | 0.00 | 0.00 | 66 | 1010.5 |
| 20260509173005 | 64 | 11 | 2.0 | 3.0 | 0.00 | 0.00 | 0.00 | 67 | 1010.6 |
| 20260509172503 | 63 | 322 | 0.0 | 7.0 | 0.00 | 0.00 | 0.00 | 67 | 1010.4 |
| 20260509171958 | 64 | 312 | 2.0 | 3.0 | 0.00 | 0.00 | 0.00 | 66 | 1010.8 |
| 20260509171454 | 64 | 225 | 2.0 | 3.0 | 0.00 | 0.00 | 0.00 | 65 | 1010.8 |
| 20260509170951 | 64 | 310 | 0.0 | 4.0 | 0.00 | 0.00 | 0.00 | 67 | 1011.1 |
| 20260509170446 | 62 | 47 | 2.0 | 4.0 | 0.00 | 0.00 | 0.00 | 67 | 1011.1 |
| 20260509165942 | 61 | 248 | 1.0 | 3.0 | 0.00 | 0.00 | 0.00 | 70 | 1011.3 |
| 20260509165441 | 61 | 189 | 2.0 | 3.0 | 0.00 | 0.00 | 0.00 | 70 | 1011.2 |
| 20260509164937 | 61 | 328 | 2.0 | 5.0 | 0.00 | 0.00 | 0.00 | 70 | 1011.0 |
| 20260509164433 | 62 | 151 | 2.0 | 3.0 | 0.00 | 0.00 | 0.00 | 70 | 1011.0 |
| 20260509163929 | 62 | 304 | 0.0 | 5.0 | 0.00 | 0.00 | 0.00 | 71 | 1011.1 |
| 20260509163427 | 62 | 19 | 3.0 | 4.0 | 0.00 | 0.00 | 0.00 | 70 | 1011.0 |
| 20260509162926 | 61 | 48 | 2.0 | 5.0 | 0.00 | 0.00 | 0.00 | 69 | 1010.6 |
| 20260509162425 | 62 | 55 | 3.0 | 4.0 | 0.00 | 0.00 | 0.00 | 68 | 1010.8 |
| 20260509161920 | 63 | 293 | 0.0 | 3.0 | 0.00 | 0.00 | 0.00 | 70 | 1010.6 |
| 20260509161417 | 62 | 118 | 2.0 | 4.0 | 0.00 | 0.00 | 0.00 | 69 | 1010.9 |
| 20260509160912 | 61 | 57 | 3.0 | 4.0 | 0.00 | 0.00 | 0.00 | 70 | 1010.7 |
| 20260509160408 | 62 | 322 | 0.0 | 5.0 | 0.00 | 0.00 | 0.00 | 69 | 1010.9 |
| 20260509155904 | 62 | 99 | 2.0 | 3.0 | 0.00 | 0.00 | 0.00 | 70 | 1011.2 |
| 20260509155401 | 61 | 150 | 0.0 | 4.0 | 0.00 | 0.00 | 0.00 | 68 | 1011.5 |
| 20260509154857 | 62 | 186 | 1.0 | 4.0 | 0.00 | 0.00 | 0.00 | 70 | 1010.9 |
| 20260509154354 | 61 | 76 | 2.0 | 4.0 | 0.00 | 0.00 | 0.00 | 70 | 1011.0 |
| 20260509153850 | 61 | 18 | 3.0 | 4.0 | 0.00 | 0.00 | 0.00 | 70 | 1011.2 |
| 20260509153348 | 62 | 108 | 1.0 | 5.0 | 0.00 | 0.00 | 0.00 | 70 | 1011.2 |
| 20260509152844 | 62 | 213 | 0.0 | 3.0 | 0.00 | 0.00 | 0.00 | 71 | 1011.3 |
| 20260509152340 | 61 | 118 | 1.0 | 6.0 | 0.00 | 0.00 | 0.00 | 69 | 1011.0 |
| 20260509151838 | 61 | 58 | 0.0 | 5.0 | 0.00 | 0.00 | 0.00 | 70 | 1011.1 |
| 20260509151334 | 61 | 136 | 2.0 | 6.0 | 0.00 | 0.00 | 0.00 | 70 | 1011.2 |
| 20260509150832 | 61 | 73 | 2.0 | 4.0 | 0.00 | 0.00 | 0.00 | 69 | 1010.9 |
| 20260509150330 | 60 | 83 | 2.0 | 7.0 | 0.00 | 0.00 | 0.00 | 69 | 1011.0 |
| 20260509145827 | 60 | 153 | 1.0 | 4.0 | 0.00 | 0.00 | 0.00 | 69 | 1011.0 |
| 20260509145321 | 60 | 20 | 2.0 | 5.0 | 0.00 | 0.00 | 0.00 | 68 | 1011.4 |
| 20260509144818 | 60 | 4 | 2.0 | 4.0 | 0.00 | 0.00 | 0.00 | 69 | 1011.2 |
| 20260509144315 | 60 | 343 | 0.0 | 3.0 | 0.00 | 0.00 | 0.00 | 72 | 1011.5 |
| 20260509143812 | 60 | 352 | 1.0 | 4.0 | 0.00 | 0.00 | 0.00 | 70 | 1011.2 |
| 20260509143310 | 59 | 327 | 2.0 | 2.0 | 0.00 | 0.00 | 0.00 | 71 | 1011.4 |
| 20260509142806 | 59 | 117 | 0.0 | 3.0 | 0.00 | 0.00 | 0.00 | 73 | 1011.4 |
| 20260509142306 | 58 | 184 | 0.0 | 4.0 | 0.00 | 0.00 | 0.00 | 73 | 1011.2 |
| 20260509141757 | 58 | 98 | 1.0 | 4.0 | 0.00 | 0.00 | 0.00 | 74 | 1011.4 |
| 20260509141255 | 58 | 144 | 0.0 | 3.0 | 0.00 | 0.00 | 0.00 | 74 | 1011.1 |
| 20260509140751 | 58 | 124 | 0.0 | 2.0 | 0.00 | 0.00 | 0.00 | 75 | 1011.2 |
| 20260509140248 | 57 | 319 | 0.0 | 4.0 | 0.00 | 0.00 | 0.00 | 75 | 1011.0 |
| 20260509135746 | 58 | 26 | 1.0 | 3.0 | 0.00 | 0.00 | 0.00 | 75 | 1011.0 |
| 20260509135244 | 57 | 32 | 0.0 | 3.0 | 0.00 | 0.00 | 0.00 | 76 | 1010.9 |
| 20260509134740 | 57 | 122 | 1.0 | 3.0 | 0.00 | 0.00 | 0.00 | 78 | 1011.1 |
| 20260509134238 | 57 | 74 | 0.0 | 3.0 | 0.00 | 0.00 | 0.00 | 78 | 1011.0 |
| 20260509133735 | 56 | 78 | 2.0 | 5.0 | 0.00 | 0.00 | 0.00 | 77 | 1011.1 |
| 20260509133231 | 56 | 103 | 1.0 | 3.0 | 0.00 | 0.00 | 0.00 | 78 | 1010.7 |
| 20260509132730 | 56 | 45 | 2.0 | 3.0 | 0.00 | 0.00 | 0.00 | 79 | 1010.7 |
| 20260509132229 | 55 | 147 | 0.0 | 2.0 | 0.00 | 0.00 | 0.00 | 79 | 1010.9 |
| 20260509131725 | 55 | 5 | 3.0 | 4.0 | 0.00 | 0.00 | 0.00 | 79 | 1010.7 |
| 20260509131221 | 55 | 65 | 0.0 | 4.0 | 0.00 | 0.00 | 0.00 | 79 | 1011.2 |
| 20260509130717 | 55 | 19 | 2.0 | 3.0 | 0.00 | 0.00 | 0.00 | 80 | 1011.0 |
| 20260509130213 | 55 | 61 | 0.0 | 4.0 | 0.00 | 0.00 | 0.00 | 79 | 1011.2 |
| 20260509125710 | 55 | 143 | 1.0 | 3.0 | 0.00 | 0.00 | 0.00 | 80 | 1011.2 |
| 20260509125207 | 55 | 79 | 3.0 | 4.0 | 0.00 | 0.00 | 0.00 | 80 | 1011.1 |
| 20260509124703 | 55 | 356 | 1.0 | 3.0 | 0.00 | 0.00 | 0.00 | 80 | 1010.9 |
| 20260509124200 | 55 | 11 | 0.0 | 2.0 | 0.00 | 0.00 | 0.00 | 80 | 1011.1 |
| 20260509123659 | 55 | 4 | 2.0 | 3.0 | 0.00 | 0.00 | 0.00 | 81 | 1011.2 |
| 20260509123155 | 55 | 65 | 1.0 | 2.0 | 0.00 | 0.00 | 0.00 | 81 | 1011.1 |
| 20260509122650 | 54 | 20 | 1.0 | 3.0 | 0.00 | 0.00 | 0.00 | 82 | 1011.1 |
| 20260509122142 | 54 | 32 | 1.0 | 3.0 | 0.00 | 0.00 | 0.00 | 81 | 1011.1 |
| 20260509121638 | 54 | 94 | 1.0 | 3.0 | 0.00 | 0.00 | 0.00 | 82 | 1011.1 |
| 20260509121137 | 54 | 44 | 0.0 | 3.0 | 0.00 | 0.00 | 0.00 | 82 | 1011.2 |
| 20260509120634 | 54 | 108 | 1.0 | 3.0 | 0.00 | 0.00 | 0.00 | 81 | 1011.2 |
| 20260509120132 | 54 | 43 | 1.0 | 3.0 | 0.00 | 0.00 | 0.00 | 82 | 1011.1 |
| 20260509115629 | 54 | 28 | 1.0 | 3.0 | 0.00 | 0.00 | 0.00 | 81 | 1011.2 |
| 20260509115127 | 54 | 60 | 1.0 | 3.0 | 0.00 | 0.00 | 0.00 | 81 | 1011.1 |
| 20260509114625 | 53 | 288 | 2.0 | 4.0 | 0.00 | 0.00 | 0.00 | 81 | 1011.1 |
| 20260509114124 | 53 | 200 | 2.0 | 3.0 | 0.00 | 0.00 | 0.00 | 82 | 1011.0 |
| 20260509113621 | 53 | 40 | 2.0 | 3.0 | 0.00 | 0.00 | 0.00 | 82 | 1010.9 |
| 20260509113119 | 53 | 106 | 1.0 | 3.0 | 0.00 | 0.00 | 0.00 | 84 | 1011.1 |
| 20260509112615 | 53 | 50 | 0.0 | 3.0 | 0.00 | 0.00 | 0.00 | 84 | 1011.0 |
| 20260509112112 | 53 | 251 | 2.0 | 4.0 | 0.00 | 0.00 | 0.00 | 84 | 1010.9 |
| 20260509111609 | 53 | 327 | 2.0 | 4.0 | 0.00 | 0.00 | 0.00 | 84 | 1010.8 |
| 20260509111106 | 53 | 82 | 0.0 | 4.0 | 0.00 | 0.00 | 0.00 | 83 | 1010.5 |
| 20260509110603 | 53 | 75 | 1.0 | 2.0 | 0.00 | 0.00 | 0.00 | 83 | 1010.6 |
| 20260509110100 | 53 | 79 | 1.0 | 2.0 | 0.00 | 0.00 | 0.00 | 82 | 1010.7 |
| 20260509105558 | 53 | 181 | 0.0 | 3.0 | 0.00 | 0.00 | 0.00 | 81 | 1010.8 |
| 20260509105055 | 53 | 117 | 0.0 | 2.0 | 0.00 | 0.00 | 0.00 | 80 | 1010.9 |
| 20260509104552 | 53 | 99 | 1.0 | 2.0 | 0.00 | 0.00 | 0.00 | 79 | 1010.8 |
| 20260509104049 | 53 | 114 | 1.0 | 3.0 | 0.00 | 0.00 | 0.00 | 78 | 1011.0 |
| 20260509103547 | 53 | 350 | 1.0 | 5.0 | 0.00 | 0.00 | 0.00 | 78 | 1010.9 |
| 20260509103045 | 53 | 323 | 3.0 | 6.0 | 0.00 | 0.00 | 0.00 | 78 | 1010.7 |
| 20260509102542 | 53 | 329 | 0.0 | 3.0 | 0.00 | 0.00 | 0.00 | 78 | 1010.6 |
| 20260509102039 | 53 | 344 | 0.0 | 3.0 | 0.00 | 0.00 | 0.00 | 77 | 1010.5 |
| 20260509101535 | 53 | 7 | 2.0 | 3.0 | 0.00 | 0.00 | 0.00 | 77 | 1010.7 |
| 20260509101032 | 53 | 307 | 0.0 | 3.0 | 0.00 | 0.00 | 0.00 | 77 | 1010.4 |
| 20260509100529 | 53 | 310 | 1.0 | 3.0 | 0.00 | 0.00 | 0.00 | 77 | 1010.3 |
| 20260509100027 | 53 | 295 | 0.0 | 3.0 | 0.00 | 0.00 | 0.00 | 77 | 1010.1 |
| 20260509095523 | 53 | 339 | 2.0 | 3.0 | 0.00 | 0.00 | 0.00 | 76 | 1010.2 |
| 20260509095021 | 53 | 7 | 1.0 | 3.0 | 0.00 | 0.00 | 0.00 | 75 | 1010.2 |
| 20260509094516 | 53 | 354 | 1.0 | 3.0 | 0.00 | 0.00 | 0.00 | 75 | 1010.3 |
| 20260509094014 | 54 | 333 | 0.0 | 3.0 | 0.00 | 0.00 | 0.00 | 74 | 1010.1 |
| 20260509093512 | 54 | 310 | 0.0 | 2.0 | 0.00 | 0.00 | 0.00 | 73 | 1010.2 |
| 20260509093010 | 54 | 295 | 0.0 | 2.0 | 0.00 | 0.00 | 0.00 | 74 | 1010.2 |
| 20260509092507 | 54 | 104 | 0.0 | 2.0 | 0.00 | 0.00 | 0.00 | 73 | 1009.9 |
| 20260509092006 | 55 | 318 | 1.0 | 2.0 | 0.00 | 0.00 | 0.00 | 71 | 1010.1 |
| 20260509091503 | 54 | 284 | 1.0 | 2.0 | 0.00 | 0.00 | 0.00 | 70 | 1010.0 |
| 20260509090959 | 54 | 231 | 0.0 | 2.0 | 0.00 | 0.00 | 0.00 | 70 | 1010.3 |
| 20260509090456 | 55 | 114 | 0.0 | 2.0 | 0.00 | 0.00 | 0.00 | 70 | 1010.2 |
| 20260509085954 | 55 | 50 | 0.0 | 2.0 | 0.00 | 0.00 | 0.00 | 69 | 1010.3 |
| 20260509085451 | 55 | 39 | 1.0 | 2.0 | 0.00 | 0.00 | 0.00 | 68 | 1010.1 |
| 20260509084947 | 56 | 66 | 2.0 | 3.0 | 0.00 | 0.00 | 0.00 | 66 | 1010.2 |
| 20260509084444 | 56 | 14 | 0.0 | 2.0 | 0.00 | 0.00 | 0.00 | 64 | 1010.5 |
| 20260509083941 | 56 | 350 | 0.0 | 3.0 | 0.00 | 0.00 | 0.00 | 63 | 1010.5 |
| 20260509083439 | 56 | 10 | 0.0 | 2.0 | 0.00 | 0.00 | 0.00 | 62 | 1009.9 |
| 20260509082935 | 57 | 159 | 0.0 | 2.0 | 0.00 | 0.00 | 0.00 | 61 | 1010.3 |
| 20260509082432 | 57 | 147 | 0.0 | 3.0 | 0.00 | 0.00 | 0.00 | 60 | 1010.3 |
| 20260509081929 | 57 | 147 | 0.0 | 2.0 | 0.00 | 0.00 | 0.00 | 59 | 1010.4 |
| 20260509081427 | 57 | 0 | 0.0 | 3.0 | 0.00 | 0.00 | 0.00 | 60 | 1010.5 |
| 20260509080924 | 58 | 87 | 1.0 | 2.0 | 0.00 | 0.00 | 0.00 | 57 | 1010.3 |
| 20260509080422 | 58 | 49 | 0.0 | 2.0 | 0.00 | 0.00 | 0.00 | 56 | 1010.4 |
| 20260509075920 | 59 | 107 | 1.0 | 3.0 | 0.00 | 0.00 | 0.00 | 55 | 1010.0 |
| 20260509075416 | 60 | 123 | 1.0 | 6.0 | 0.00 | 0.00 | 0.00 | 52 | 1010.2 |
| 20260509074914 | 60 | 259 | 2.0 | 5.0 | 0.00 | 0.00 | 0.00 | 52 | 1010.2 |
| 20260509074412 | 60 | 255 | 1.0 | 4.0 | 0.00 | 0.00 | 0.00 | 51 | 1010.5 |
| 20260509073908 | 60 | 226 | 4.0 | 7.0 | 0.00 | 0.00 | 0.00 | 51 | 1010.2 |
| 20260509073404 | 60 | 243 | 4.0 | 6.0 | 0.00 | 0.00 | 0.00 | 52 | 1010.3 |
| 20260509072901 | 60 | 271 | 4.0 | 9.0 | 0.00 | 0.00 | 0.00 | 52 | 1010.3 |
| 20260509072357 | 60 | 240 | 3.0 | 10.0 | 0.00 | 0.00 | 0.00 | 52 | 1010.3 |
| 20260509071854 | 60 | 183 | 2.0 | 7.0 | 0.00 | 0.00 | 0.00 | 54 | 1010.5 |
| 20260509071351 | 59 | 243 | 3.0 | 9.0 | 0.00 | 0.00 | 0.00 | 54 | 1010.3 |
| 20260509070848 | 59 | 254 | 5.0 | 8.0 | 0.00 | 0.00 | 0.00 | 55 | 1010.2 |
| 20260509070344 | 58 | 256 | 2.0 | 6.0 | 0.00 | 0.00 | 0.00 | 56 | 1010.3 |
| 20260509065841 | 58 | 199 | 2.0 | 8.0 | 0.00 | 0.00 | 0.00 | 58 | 1010.3 |
| 20260509065337 | 57 | 13 | 1.0 | 5.0 | 0.00 | 0.00 | 0.00 | 61 | 1010.5 |
| 20260509064833 | 55 | 271 | 1.0 | 4.0 | 0.00 | 0.00 | 0.00 | 63 | 1010.3 |
| 20260509064331 | 55 | 63 | 2.0 | 3.0 | 0.00 | 0.00 | 0.00 | 66 | 1010.5 |
| 20260509063829 | 54 | 123 | 1.0 | 2.0 | 0.00 | 0.00 | 0.00 | 66 | 1010.7 |
| 20260509063324 | 55 | 154 | 0.0 | 3.0 | 0.00 | 0.00 | 0.00 | 66 | 1010.7 |
| 20260509062822 | 54 | 85 | 1.0 | 2.0 | 0.00 | 0.00 | 0.00 | 66 | 1010.3 |
| 20260509062319 | 55 | 164 | 0.0 | 2.0 | 0.00 | 0.00 | 0.00 | 65 | 1010.6 |
| 20260509061816 | 55 | 75 | 0.0 | 3.0 | 0.00 | 0.00 | 0.00 | 65 | 1010.8 |
| 20260509061314 | 55 | 221 | 2.0 | 3.0 | 0.00 | 0.00 | 0.00 | 65 | 1010.8 |
| 20260509060810 | 55 | 132 | 0.0 | 3.0 | 0.00 | 0.00 | 0.00 | 64 | 1010.7 |
| 20260509060307 | 55 | 184 | 0.0 | 3.0 | 0.00 | 0.00 | 0.00 | 64 | 1010.9 |
| 20260509055803 | 55 | 221 | 0.0 | 3.0 | 0.00 | 0.00 | 0.00 | 64 | 1010.9 |
| 20260509055258 | 55 | 155 | 0.0 | 2.0 | 0.00 | 0.00 | 0.00 | 64 | 1010.9 |
| 20260509054755 | 56 | 28 | 0.0 | 2.0 | 0.00 | 0.00 | 0.00 | 64 | 1010.9 |
| 20260509054252 | 56 | 72 | 0.0 | 2.0 | 0.00 | 0.00 | 0.00 | 62 | 1010.9 |
| 20260509053751 | 56 | 210 | 0.0 | 3.0 | 0.00 | 0.00 | 0.00 | 61 | 1010.9 |
| 20260509053247 | 56 | 248 | 2.0 | 3.0 | 0.00 | 0.00 | 0.00 | 62 | 1011.0 |
| 20260509052745 | 56 | 297 | 0.0 | 4.0 | 0.00 | 0.00 | 0.00 | 62 | 1010.9 |
| 20260509052243 | 56 | 259 | 0.0 | 3.0 | 0.00 | 0.00 | 0.00 | 62 | 1011.0 |
| 20260509051740 | 56 | 188 | 0.0 | 3.0 | 0.00 | 0.00 | 0.00 | 63 | 1010.8 |
| 20260509051238 | 55 | 286 | 2.0 | 4.0 | 0.00 | 0.00 | 0.00 | 65 | 1011.1 |
| 20260509050729 | 54 | 251 | 0.0 | 4.0 | 0.00 | 0.00 | 0.00 | 67 | 1010.7 |
| 20260509050226 | 53 | 292 | 0.0 | 2.0 | 0.00 | 0.00 | 0.00 | 69 | 1010.9 |
| 20260509045723 | 53 | 140 | 0.0 | 2.0 | 0.00 | 0.00 | 0.00 | 69 | 1010.8 |
| 20260509045220 | 52 | 77 | 0.0 | 2.0 | 0.00 | 0.00 | 0.00 | 72 | 1010.9 |
| 20260509044717 | 52 | 327 | 0.0 | 1.0 | 0.00 | 0.00 | 0.00 | 72 | 1011.0 |
| 20260509044215 | 51 | 251 | 1.0 | 3.0 | 0.00 | 0.00 | 0.00 | 74 | 1010.7 |
| 20260509043711 | 50 | 318 | 0.0 | 3.0 | 0.00 | 0.00 | 0.00 | 76 | 1010.7 |
| 20260509043207 | 50 | 116 | 1.0 | 3.0 | 0.00 | 0.00 | 0.00 | 76 | 1010.9 |
| 20260509042703 | 50 | 146 | 0.0 | 3.0 | 0.00 | 0.00 | 0.00 | 74 | 1011.1 |
| 20260509042159 | 50 | 40 | 1.0 | 2.0 | 0.00 | 0.00 | 0.00 | 73 | 1011.2 |
| 20260509041656 | 51 | 102 | 0.0 | 1.0 | 0.00 | 0.00 | 0.00 | 73 | 1011.2 |
| 20260509041154 | 51 | 116 | 1.0 | 2.0 | 0.00 | 0.00 | 0.00 | 73 | 1011.2 |
| 20260509040652 | 51 | 98 | 0.0 | 2.0 | 0.00 | 0.00 | 0.00 | 72 | 1011.1 |
| 20260509040148 | 51 | 210 | 0.0 | 2.0 | 0.00 | 0.00 | 0.00 | 72 | 1011.1 |
| 20260509035645 | 51 | 159 | 1.0 | 2.0 | 0.00 | 0.00 | 0.00 | 73 | 1011.6 |
| 20260509035142 | 52 | 53 | 0.0 | 2.0 | 0.00 | 0.00 | 0.00 | 71 | 1011.3 |
| 20260509034640 | 51 | 150 | 0.0 | 1.0 | 0.00 | 0.00 | 0.00 | 70 | 1011.1 |
| 20260509034136 | 51 | 304 | 0.0 | 1.0 | 0.00 | 0.00 | 0.00 | 69 | 1011.2 |
| 20260509033634 | 52 | 54 | 0.0 | 2.0 | 0.00 | 0.00 | 0.00 | 67 | 1011.6 |
| 20260509033130 | 53 | 45 | 0.0 | 1.0 | 0.00 | 0.00 | 0.00 | 66 | 1011.5 |
| 20260509032628 | 54 | 349 | 0.0 | 2.0 | 0.00 | 0.00 | 0.00 | 64 | 1011.2 |
| 20260509032124 | 54 | 332 | 0.0 | 2.0 | 0.00 | 0.00 | 0.00 | 63 | 1011.2 |
| 20260509031622 | 54 | 293 | 0.0 | 3.0 | 0.00 | 0.00 | 0.00 | 64 | 1011.5 |
| 20260509031120 | 55 | 35 | 0.0 | 2.0 | 0.00 | 0.00 | 0.00 | 61 | 1011.2 |
| 20260509030618 | 55 | 99 | 2.0 | 3.0 | 0.00 | 0.00 | 0.00 | 60 | 1011.1 |
| 20260509030114 | 55 | 66 | 0.0 | 2.0 | 0.00 | 0.00 | 0.00 | 61 | 1011.5 |
| 20260509025611 | 55 | 33 | 0.0 | 2.0 | 0.00 | 0.00 | 0.00 | 61 | 1011.4 |
| 20260509025106 | 55 | 127 | 0.0 | 2.0 | 0.00 | 0.00 | 0.00 | 61 | 1011.3 |
| 20260509024602 | 55 | 49 | 0.0 | 1.0 | 0.00 | 0.00 | 0.00 | 61 | 1011.5 |
| 20260509024058 | 56 | 331 | 0.0 | 2.0 | 0.00 | 0.00 | 0.00 | 60 | 1011.6 |
| 20260509023556 | 56 | 85 | 0.0 | 2.0 | 0.00 | 0.00 | 0.00 | 60 | 1011.3 |
| 20260509023053 | 56 | 174 | 0.0 | 1.0 | 0.00 | 0.00 | 0.00 | 60 | 1011.4 |
| 20260509022549 | 56 | 47 | 0.0 | 2.0 | 0.00 | 0.00 | 0.00 | 60 | 1011.5 |
| 20260509022047 | 56 | 64 | 0.0 | 2.0 | 0.00 | 0.00 | 0.00 | 61 | 1011.7 |
| 20260509021544 | 57 | 38 | 0.0 | 2.0 | 0.00 | 0.00 | 0.00 | 61 | 1011.8 |
| 20260509021041 | 56 | 9 | 0.0 | 2.0 | 0.00 | 0.00 | 0.00 | 60 | 1011.8 |
| 20260509020539 | 57 | 8 | 0.0 | 2.0 | 0.00 | 0.00 | 0.00 | 57 | 1011.8 |
| 20260509020036 | 57 | 105 | 0.0 | 1.0 | 0.00 | 0.00 | 0.00 | 57 | 1011.8 |
| 20260509015535 | 57 | 75 | 0.0 | 2.0 | 0.00 | 0.00 | 0.00 | 57 | 1011.5 |
| 20260509015032 | 57 | 36 | 0.0 | 2.0 | 0.00 | 0.00 | 0.00 | 57 | 1011.5 |
| 20260509014528 | 57 | 73 | 2.0 | 2.0 | 0.00 | 0.00 | 0.00 | 57 | 1011.6 |
| 20260509014024 | 56 | 6 | 0.0 | 2.0 | 0.00 | 0.00 | 0.00 | 59 | 1011.5 |
| 20260509013522 | 57 | 142 | 0.0 | 1.0 | 0.00 | 0.00 | 0.00 | 58 | 1011.6 |
| 20260509013017 | 57 | 119 | 0.0 | 2.0 | 0.00 | 0.00 | 0.00 | 56 | 1011.2 |
| 20260509012514 | 58 | 109 | 0.0 | 2.0 | 0.00 | 0.00 | 0.00 | 56 | 1011.5 |
| 20260509012011 | 59 | 123 | 0.0 | 2.0 | 0.00 | 0.00 | 0.00 | 55 | 1011.5 |
| 20260509011509 | 58 | 173 | 2.0 | 2.0 | 0.00 | 0.00 | 0.00 | 56 | 1011.2 |
| 20260509011006 | 58 | 141 | 0.0 | 1.0 | 0.00 | 0.00 | 0.00 | 56 | 1011.3 |
| 20260509010504 | 59 | 325 | 0.0 | 2.0 | 0.00 | 0.00 | 0.00 | 55 | 1011.4 |
| 20260509010000 | 60 | 322 | 0.0 | 2.0 | 0.00 | 0.00 | 0.00 | 54 | 1011.2 |
| 20260509005458 | 61 | 16 | 0.0 | 2.0 | 0.00 | 0.00 | 0.00 | 52 | 1011.3 |
| 20260509004957 | 62 | 53 | 0.0 | 2.0 | 0.00 | 0.00 | 0.00 | 48 | 1011.6 |
| 20260509004454 | 62 | 226 | 0.0 | 3.0 | 0.00 | 0.00 | 0.00 | 49 | 1011.5 |
| 20260509003952 | 62 | 37 | 0.0 | 2.0 | 0.00 | 0.00 | 0.00 | 48 | 1011.3 |
| 20260509003450 | 63 | 116 | 1.0 | 2.0 | 0.00 | 0.00 | 0.00 | 47 | 1011.0 |
| 20260509002947 | 63 | 107 | 2.0 | 2.0 | 0.00 | 0.00 | 0.00 | 47 | 1011.6 |
| 20260509002445 | 63 | 152 | 0.0 | 2.0 | 0.00 | 0.00 | 0.00 | 46 | 1011.4 |
| 20260509001942 | 64 | 155 | 1.0 | 2.0 | 0.00 | 0.00 | 0.00 | 45 | 1011.1 |
| 20260509001438 | 64 | 130 | 0.0 | 2.0 | 0.00 | 0.00 | 0.00 | 45 | 1011.1 |
| 20260509000935 | 64 | 189 | 0.0 | 1.0 | 0.00 | 0.00 | 0.00 | 44 | 1011.1 |
| 20260509000433 | 65 | 10 | 0.0 | 3.0 | 0.00 | 0.00 | 0.00 | 45 | 1011.0 |
| 20260508235929 | 65 | 129 | 0.0 | 1.0 | 0.00 | 0.00 | 0.00 | 43 | 1010.7 |
| 20260508235427 | 66 | 133 | 0.0 | 1.0 | 0.00 | 0.00 | 0.00 | 42 | 1011.1 |
| 20260508234923 | 66 | 143 | 1.0 | 2.0 | 0.00 | 0.00 | 0.00 | 41 | 1010.9 |
| 20260508234420 | 66 | 116 | 0.0 | 2.0 | 0.00 | 0.00 | 0.00 | 40 | 1010.7 |
| 20260508233918 | 67 | 110 | 0.0 | 2.0 | 0.00 | 0.00 | 0.00 | 41 | 1010.8 |
| 20260508233417 | 67 | 230 | 0.0 | 0.0 | 0.00 | 0.00 | 0.00 | 41 | 1010.9 |
| 20260508232914 | 67 | 328 | 0.0 | 2.0 | 0.00 | 0.00 | 0.00 | 39 | 1010.7 |
| 20260508232411 | 67 | 334 | 1.0 | 3.0 | 0.00 | 0.00 | 0.00 | 40 | 1010.8 |
| 20260508231908 | 67 | 293 | 0.0 | 1.0 | 0.00 | 0.00 | 0.00 | 39 | 1010.9 |
| 20260508231404 | 67 | 269 | 0.0 | 2.0 | 0.00 | 0.00 | 0.00 | 38 | 1010.9 |
| 20260508230856 | 68 | 246 | 1.0 | 2.0 | 0.00 | 0.00 | 0.00 | 38 | 1010.8 |
| 20260508230352 | 68 | 329 | 0.0 | 3.0 | 0.00 | 0.00 | 0.00 | 36 | 1010.8 |
| 20260508225850 | 70 | 339 | 1.0 | 4.0 | 0.00 | 0.00 | 0.00 | 36 | 1010.7 |
| 20260508225346 | 70 | 315 | 3.0 | 5.0 | 0.00 | 0.00 | 0.00 | 35 | 1010.7 |
| 20260508224844 | 69 | 351 | 2.0 | 4.0 | 0.00 | 0.00 | 0.00 | 37 | 1010.7 |
| 20260508224341 | 68 | 335 | 0.0 | 2.0 | 0.00 | 0.00 | 0.00 | 39 | 1010.8 |
| 20260508223839 | 68 | 330 | 0.0 | 3.0 | 0.00 | 0.00 | 0.00 | 37 | 1010.8 |
| 20260508223336 | 68 | 345 | 2.0 | 4.0 | 0.00 | 0.00 | 0.00 | 38 | 1010.9 |
| 20260508222833 | 68 | 269 | 0.0 | 5.0 | 0.00 | 0.00 | 0.00 | 38 | 1011.0 |
| 20260508222331 | 68 | 14 | 2.0 | 8.0 | 0.00 | 0.00 | 0.00 | 37 | 1010.9 |
| 20260508221827 | 68 | 256 | 0.0 | 3.0 | 0.00 | 0.00 | 0.00 | 38 | 1010.9 |
| 20260508221322 | 69 | 291 | 3.0 | 7.0 | 0.00 | 0.00 | 0.00 | 37 | 1010.9 |
| 20260508220819 | 70 | 35 | 0.0 | 6.0 | 0.00 | 0.00 | 0.00 | 36 | 1010.8 |
| 20260508220316 | 71 | 256 | 2.0 | 6.0 | 0.00 | 0.00 | 0.00 | 33 | 1010.5 |
| 20260508215813 | 71 | 302 | 4.0 | 6.0 | 0.00 | 0.00 | 0.00 | 35 | 1010.7 |
| 20260508215309 | 70 | 346 | 3.0 | 4.0 | 0.00 | 0.00 | 0.00 | 35 | 1010.9 |
| 20260508214806 | 69 | 250 | 5.0 | 10.0 | 0.00 | 0.00 | 0.00 | 36 | 1010.8 |
| 20260508214303 | 70 | 252 | 2.0 | 6.0 | 0.00 | 0.00 | 0.00 | 35 | 1011.1 |
| 20260508213759 | 69 | 294 | 1.0 | 3.0 | 0.00 | 0.00 | 0.00 | 39 | 1010.9 |
| 20260508213256 | 68 | 351 | 2.0 | 7.0 | 0.00 | 0.00 | 0.00 | 36 | 1011.0 |
| 20260508212753 | 69 | 315 | 2.0 | 7.0 | 0.00 | 0.00 | 0.00 | 35 | 1010.9 |
| 20260508212249 | 69 | 325 | 1.0 | 5.0 | 0.00 | 0.00 | 0.00 | 37 | 1011.0 |
| 20260508211745 | 68 | 265 | 1.0 | 5.0 | 0.00 | 0.00 | 0.00 | 36 | 1011.2 |
| 20260508211241 | 68 | 251 | 4.0 | 6.0 | 0.00 | 0.00 | 0.00 | 37 | 1011.0 |
| 20260508210739 | 68 | 327 | 3.0 | 9.0 | 0.00 | 0.00 | 0.00 | 36 | 1011.0 |
| 20260508210235 | 68 | 354 | 6.0 | 8.0 | 0.00 | 0.00 | 0.00 | 35 | 1011.2 |
| 20260508205726 | 69 | 241 | 0.0 | 6.0 | 0.00 | 0.00 | 0.00 | 35 | 1010.9 |
| 20260508205223 | 71 | 303 | 4.0 | 7.0 | 0.00 | 0.00 | 0.00 | 32 | 1011.0 |
| 20260508204719 | 70 | 328 | 4.0 | 7.0 | 0.00 | 0.00 | 0.00 | 35 | 1011.2 |
| 20260508204216 | 69 | 222 | 3.0 | 9.0 | 0.00 | 0.00 | 0.00 | 34 | 1011.3 |
| 20260508203712 | 69 | 231 | 3.0 | 10.0 | 0.00 | 0.00 | 0.00 | 34 | 1011.4 |
| 20260508203208 | 68 | 289 | 8.0 | 12.0 | 0.00 | 0.00 | 0.00 | 33 | 1011.2 |
| 20260508202704 | 68 | 262 | 4.0 | 13.0 | 0.00 | 0.00 | 0.00 | 33 | 1011.3 |
| 20260508202201 | 68 | 296 | 4.0 | 11.0 | 0.00 | 0.00 | 0.00 | 33 | 1011.2 |
| 20260508201658 | 69 | 227 | 14.0 | 16.0 | 0.00 | 0.00 | 0.00 | 32 | 1011.5 |
| 20260508201155 | 69 | 322 | 5.0 | 9.0 | 0.00 | 0.00 | 0.00 | 33 | 1011.1 |
| 20260508200652 | 69 | 265 | 5.0 | 11.0 | 0.00 | 0.00 | 0.00 | 34 | 1011.6 |
| 20260508200148 | 69 | 275 | 2.0 | 10.0 | 0.00 | 0.00 | 0.00 | 33 | 1011.2 |
| 20260508195645 | 69 | 266 | 6.0 | 10.0 | 0.00 | 0.00 | 0.00 | 32 | 1011.4 |
| 20260508195141 | 69 | 258 | 11.0 | 16.0 | 0.00 | 0.00 | 0.00 | 32 | 1011.3 |
| 20260508194637 | 69 | 266 | 6.0 | 10.0 | 0.00 | 0.00 | 0.00 | 33 | 1011.3 |
| 20260508194134 | 70 | 240 | 9.0 | 15.0 | 0.00 | 0.00 | 0.00 | 31 | 1011.3 |
| 20260508193631 | 70 | 318 | 4.0 | 12.0 | 0.00 | 0.00 | 0.00 | 34 | 1011.4 |
| 20260508193128 | 71 | 235 | 10.0 | 15.0 | 0.00 | 0.00 | 0.00 | 31 | 1011.6 |
| 20260508192625 | 71 | 188 | 5.0 | 11.0 | 0.00 | 0.00 | 0.00 | 33 | 1011.7 |
| 20260508192122 | 71 | 241 | 9.0 | 14.0 | 0.00 | 0.00 | 0.00 | 30 | 1011.4 |
| 20260508191618 | 71 | 247 | 5.0 | 9.0 | 0.00 | 0.00 | 0.00 | 34 | 1011.8 |
| 20260508191115 | 70 | 333 | 3.0 | 15.0 | 0.00 | 0.00 | 0.00 | 32 | 1011.7 |
| 20260508190613 | 70 | 245 | 5.0 | 17.0 | 0.00 | 0.00 | 0.00 | 32 | 1012.0 |
| 20260508190109 | 68 | 243 | 9.0 | 11.0 | 0.00 | 0.00 | 0.00 | 32 | 1011.9 |
| 20260508185606 | 68 | 253 | 1.0 | 13.0 | 0.00 | 0.00 | 0.00 | 33 | 1012.4 |
| 20260508185103 | 68 | 279 | 5.0 | 13.0 | 0.00 | 0.00 | 0.00 | 32 | 1012.1 |
| 20260508184601 | 68 | 311 | 4.0 | 14.0 | 0.00 | 0.00 | 0.00 | 33 | 1012.2 |
| 20260508184058 | 69 | 174 | 1.0 | 7.0 | 0.00 | 0.00 | 0.00 | 33 | 1012.4 |
| 20260508183554 | 69 | 234 | 11.0 | 20.0 | 0.00 | 0.00 | 0.00 | 31 | 1012.3 |
| 20260508183049 | 68 | 230 | 3.0 | 13.0 | 0.00 | 0.00 | 0.00 | 34 | 1012.3 |
| 20260508182541 | 69 | 241 | 12.0 | 17.0 | 0.00 | 0.00 | 0.00 | 32 | 1012.5 |
| 20260508182037 | 68 | 151 | 2.0 | 11.0 | 0.00 | 0.00 | 0.00 | 31 | 1012.3 |
| 20260508181532 | 69 | 297 | 7.0 | 13.0 | 0.00 | 0.00 | 0.00 | 33 | 1012.3 |
| 20260508181030 | 69 | 256 | 4.0 | 12.0 | 0.00 | 0.00 | 0.00 | 33 | 1012.5 |
| 20260508180526 | 68 | 237 | 11.0 | 14.0 | 0.00 | 0.00 | 0.00 | 33 | 1012.5 |
| 20260508180023 | 69 | 257 | 6.0 | 13.0 | 0.00 | 0.00 | 0.00 | 32 | 1012.4 |
| 20260508175519 | 67 | 228 | 3.0 | 18.0 | 0.00 | 0.00 | 0.00 | 33 | 1012.5 |
| 20260508175017 | 68 | 251 | 3.0 | 14.0 | 0.00 | 0.00 | 0.00 | 33 | 1012.9 |
| 20260508174514 | 68 | 239 | 6.0 | 15.0 | 0.00 | 0.00 | 0.00 | 32 | 1013.0 |
| 20260508174011 | 68 | 249 | 4.0 | 10.0 | 0.00 | 0.00 | 0.00 | 36 | 1012.7 |